Location: *
(45.8589°N, 4.7139°E)
Time: 03:58:54
(UTC+00:00)

STARLINK-1215 - Pass Details

Date: 09 April 2020
Orbit: 379 x 381 km, 53.0° (Epoch: 02 June)

Event Time Altitude Azimuth Distance (km) Brightness Sun altitude
Rises 19:42:07 0° 301° (WNW) 2,261 8.8 -14.1°
Reaches altitude 10° 19:44:10 10° 301° (WNW) 1,404 7.1 -14.4°
Maximum altitude 19:47:18 90° 351° (N) 386 2.8 -14.9°
Enters shadow 19:48:23 38° 122° (ESE) 600 3.3 -15.1°
